Regional Weather Roundup
Issued by NWS Mt. Holly, NJ

Home | Current Version | Previous Version | Text Only | Print | Product List | Glossary On
Versions: 1 2 3 4 5 6 7 8 9 10 11 12 13 14 15 16 17 18 19 20 21 22 23 24 25 26 27 28 29 30 31 32 33 34 35 36 37 38 39 40 41 42 43 44 45 46 47 48 49 50
000
ASUS41 KPHI 060812
RWRPHI

REGIONAL WEATHER ROUNDUP
NATIONAL WEATHER SERVICE MOUNT HOLLY NJ
300 AM EST TUE DEC 06 2016

NOTE:  "FAIR" INDICATES FEW OR NO CLOUDS BELOW 12,000 FEET WITH NO
SIGNIFICANT WEATHER AND/OR OBSTRUCTIONS TO VISIBILITY.

 * = STATION DOES NOT REPORT PRECIPITATION (E.G. RAIN, SNOW, ETC.)
        OR FOG.

NJZ015>026-060900-
SOUTHERN NEW JERSEY

CITY           SKY/WX    TMP DP  RH WIND       PRES   REMARKS
POMONA         PTCLDY    36  31  82 N6        30.12S WCI  31
WILDWOOD*      PTCLDY    40  33  76 N7        30.12F
MILLVILLE      CLOUDY    40  33  76 N7        30.12F
WRIGHTSTOWN    MOCLDY    36  30  78 NW5       30.11R WCI  32
MOUNT HOLLY    PTCLDY    31  30  96 CALM      30.14R
TRENTON        PTCLDY    35  28  75 NW5       30.13R WCI  31

$$
NJZ001>014-060900-
NORTHERN NEW JERSEY

CITY           SKY/WX    TMP DP  RH WIND       PRES   REMARKS
SUSSEX         CLEAR     24  23  96 CALM      30.11S
ANDOVER*         N/A     27  26  96 CALM      30.12S
MORRISTOWN     CLEAR     27  27 100 CALM      30.13S
NEWARK         PTCLDY    37  31  78 S3        30.13S
TETERBORO      CLEAR     33  28  81 CALM      30.12S
CALDWELL       CLEAR     30  27  88 CALM      30.13S
SOMERVILLE     CLEAR     27  24  89 CALM      30.12R
ALLAIRE*       PTCLDY    32  29  88 NW6       30.13R WCI  26
TOMS RIVER*    CLOUDY    29  28  96 CALM      30.13S

$$
PAZ043-044-047-054-055-060>062-066>071-060900-
EASTERN PENNSYLVANIA

CITY           SKY/WX    TMP DP  RH WIND       PRES   REMARKS
PHILADELPHIA   MOCLDY    39  30  70 N7        30.15R WCI  34
NORTH PHILA    CLOUDY    38  30  73 NW7       30.16R WCI  33
BLUE BELL*     MOCLDY    32  30  93 CALM      30.13S
DOYLESTOWN     PTCLDY    32  28  85 CALM      30.13R
QUAKERTOWN*    PTCLDY    27  27 100 W3        30.14S
PERKASIE*      FAIR      28  28 100 CALM      30.14R
POTTSTOWN      PTCLDY    30  27  88 CALM      30.16R
LANCASTER      MOCLDY    31  30  96 CALM      30.14S
COATESVILLE    CLOUDY    36  28  75 N6        30.13F WCI  31
READING        CLOUDY    30  27  88 CALM      30.14R
ALLENTOWN      CLOUDY    30  26  85 CALM      30.13R
MOUNT POCONO   CLEAR     25  23  92 CALM      30.06R
HAZLETON       CLOUDY    28  21  74 CALM      30.11R
LEHIGHTON        N/A     25  23  93 CALM      30.15R
WILKES BARRE   CLOUDY    30  26  85 E5        30.10S WCI  25

$$
DEZALL-MDZ008-012-015-019-020-060900-
DELAWARE AND EASTERN MARYLAND

CITY           SKY/WX    TMP DP  RH WIND       PRES   REMARKS
WILMINGTON     CLOUDY    38  31  76 N6        30.14F WCI  33
DOVER          MOCLDY    38  37  94 N7        30.11F WCI  33
GEORGETOWN     CLOUDY    42  34  73 N6        30.12S
EASTON         CLOUDY    41  33  74 NE3       30.16R
ABERDEEN       CLOUDY    40  32  70 N5        30.14F
PATUXENT       PTCLDY    44  33  65 NE13      30.12R
OCEAN CITY     PTCLDY    46  35  65 N9        30.12R
WALLOPS ISLAND MOCLDY    43  38  82 N7        30.11R
SALISBURY      PTCLDY    42  35  76 N5        30.12R

$$
PAZ001-021-NYZ056-072-MDZ011-DCZ001-060900-
OTHER NEARBY LOCATIONS

CITY           SKY/WX    TMP DP  RH WIND       PRES   REMARKS
HARRISBURG     MOCLDY    31  30  96 CALM      30.13F
STATE COLLEGE  CLOUDY    30  27  89 W3        30.09S
WILLIAMSPORT   CLOUDY    35  27  72 SW3       30.12R
BINGHAMTON     CLEAR     30  25  81 NW5       30.08R WCI  25
NEW YORK CITY  CLEAR     40  28  62 W3        30.14S
BALTIMORE      CLOUDY    42  31  64 CALM      30.12S
WASHINGTON DC  CLOUDY    44  33  65 NE7       30.14R

$$



USA.gov is the U.S. government's official web portal to all federal, state and local government web resources and services.